When you browse on this site, cookies collect data to enhance your experience and personalize the content and advertising you see.
Visit our Privacy Policy to learn more. By continuing to use the site, you agree to this use of cookies and data.
  • In Czech Republic
  • List of Countries
  • For 7 days
  • Water Temperature
  • Satellite Maps
  • Weather Map
  • Weather Widgets
  • user-avatar
    Login

    Hourly Weather Voskresenovka

    Today, 18 November, Sunday

    Time Temperature Precipitation Wind Pressure Humidity
    00:00 -2°C° 0 mm 4 mps 759 mmHg 55%
    01:00 -2°C° 0.1 mm 4 mps 759 mmHg 60%
    02:00 -2°C° 0.1 mm 4 mps 758 mmHg 66%
    03:00 -2°C° 0.1 mm 4 mps 758 mmHg 71%
    04:00 -2°C° 0 mm 4 mps 757 mmHg 72%
    05:00 -2°C° 0 mm 4 mps 757 mmHg 73%
    06:00 -2°C° 0 mm 4 mps 756 mmHg 74%
    07:00 -1°C° 0 mm 3 mps 756 mmHg 76%
    08:00 -1°C° 0 mm 3 mps 756 mmHg 79%
    09:00 -1°C° 0 mm 3 mps 756 mmHg 81%
    10:00 -1°C° 0 mm 3 mps 756 mmHg 80%
    11:00 0°C° 0 mm 3 mps 756 mmHg 80%
    12:00 0°C° 0 mm 3 mps 757 mmHg 79%
    13:00 +1°C° 0 mm 2 mps 757 mmHg 80%
    14:00 +1°C° 0 mm 2 mps 757 mmHg 81%
    15:00 +1°C° 0 mm 2 mps 757 mmHg 82%
    16:00 +1°C° 0 mm 2 mps 757 mmHg 84%
    17:00 -1°C° 0 mm 2 mps 757 mmHg 86%
    18:00 -1°C° 0 mm 2 mps 757 mmHg 89%
    19:00 +1°C° 0 mm 1 mps 758 mmHg 90%
    20:00 +1°C° 0 mm 1 mps 758 mmHg 90%
    21:00 +1°C° 0 mm 1 mps 758 mmHg 91%
    22:00 +1°C° 0 mm 1 mps 758 mmHg 92%
    23:00 +1°C° 0 mm 1 mps 759 mmHg 92%

    Tomorrow, 19 November, Monday

    Time Temperature Precipitation Wind Pressure Humidity
    00:00 +1°C° 0 mm 1 mps 759 mmHg 93%
    01:00 +1°C° 0 mm 1 mps 759 mmHg 93%
    02:00 +1°C° 0 mm 1 mps 759 mmHg 93%
    03:00 0°C° 0 mm 1 mps 760 mmHg 94%
    04:00 0°C° 0 mm 1 mps 760 mmHg 94%
    05:00 +1°C° 0 mm 1 mps 760 mmHg 94%
    06:00 0°C° 0 mm 0 mps 760 mmHg 94%
    07:00 0°C° 0 mm 0 mps 761 mmHg 94%
    08:00 0°C° 0 mm 0 mps 761 mmHg 93%
    09:00 0°C° 0 mm 0 mps 761 mmHg 93%
    10:00 +1°C° 0 mm 0 mps 762 mmHg 90%
    11:00 +1°C° 0 mm 0 mps 762 mmHg 87%
    12:00 +2°C° 0 mm 0 mps 762 mmHg 83%
    13:00 +2°C° 0 mm 0 mps 763 mmHg 85%
    14:00 +1°C° 0 mm 0 mps 763 mmHg 87%
    15:00 +2°C° 0 mm 1 mps 763 mmHg 88%
    16:00 +2°C° 0 mm 1 mps 763 mmHg 90%
    17:00 +1°C° 0 mm 1 mps 763 mmHg 92%
    18:00 0°C° 0 mm 1 mps 763 mmHg 94%
    19:00 0°C° 0 mm 1 mps 763 mmHg 95%
    20:00 0°C° 0 mm 1 mps 763 mmHg 95%
    21:00 -2°C° 0 mm 2 mps 764 mmHg 96%
    22:00 -1°C° 0 mm 2 mps 764 mmHg 95%
    23:00 -1°C° 0 mm 2 mps 764 mmHg 95%

    Day after tomorrow, 20 November, Tuesday

    Time Temperature Precipitation Wind Pressure Humidity
    00:00 -1°C° 0 mm 2 mps 764 mmHg 94%
    01:00 -1°C° 0 mm 2 mps 764 mmHg 94%
    02:00 -1°C° 0 mm 2 mps 764 mmHg 94%
    03:00 -1°C° 0 mm 2 mps 764 mmHg 93%
    04:00 -2°C° 0 mm 2 mps 764 mmHg 93%
    05:00 -2°C° 0 mm 2 mps 763 mmHg 93%
    06:00 -2°C° 0 mm 2 mps 763 mmHg 93%
    07:00 -2°C° 0 mm 2 mps 763 mmHg 92%
    08:00 -2°C° 0 mm 2 mps 763 mmHg 91%
    09:00 -2°C° 0 mm 2 mps 763 mmHg 90%
    10:00 -2°C° 0 mm 2 mps 763 mmHg 86%
    11:00 +1°C° 0 mm 1 mps 763 mmHg 83%
    12:00 +1°C° 0 mm 1 mps 762 mmHg 80%
    13:00 +1°C° 0 mm 1 mps 762 mmHg 80%
    14:00 +1°C° 0 mm 1 mps 762 mmHg 80%
    15:00 +1°C° 0 mm 1 mps 761 mmHg 80%
    16:00 +1°C° 0 mm 1 mps 761 mmHg 82%
    17:00 0°C° 0 mm 1 mps 761 mmHg 84%
    18:00 0°C° 0 mm 1 mps 761 mmHg 87%
    19:00 0°C° 0 mm 1 mps 761 mmHg 86%
    20:00 0°C° 0 mm 1 mps 761 mmHg 86%
    21:00 0°C° 0 mm 1 mps 760 mmHg 86%
    22:00 -1°C° 0 mm 1 mps 760 mmHg 85%
    23:00 -3°C° 0 mm 2 mps 760 mmHg 85%

    21 November, Wednesday

    Time Temperature Precipitation Wind Pressure Humidity
    00:00 -3°C° 0 mm 2 mps 760 mmHg 84%
    01:00 -3°C° 0 mm 2 mps 760 mmHg 83%
    02:00 -3°C° 0 mm 2 mps 760 mmHg 82%
    03:00 -3°C° 0 mm 2 mps 759 mmHg 81%
    04:00 -3°C° 0 mm 2 mps 759 mmHg 80%
    05:00 -3°C° 0 mm 2 mps 759 mmHg 79%
    06:00 -4°C° 0 mm 3 mps 759 mmHg 78%
    07:00 -4°C° 0 mm 3 mps 759 mmHg 77%
    08:00 -4°C° 0 mm 3 mps 759 mmHg 75%
    09:00 -4°C° 0 mm 3 mps 759 mmHg 74%
    10:00 -2°C° 0 mm 3 mps 759 mmHg 73%
    11:00 -2°C° 0 mm 3 mps 759 mmHg 71%
    12:00 -2°C° 0 mm 3 mps 759 mmHg 70%
    13:00 -2°C° 0 mm 3 mps 759 mmHg 72%
    14:00 -2°C° 0 mm 3 mps 759 mmHg 73%
    15:00 -2°C° 0 mm 3 mps 759 mmHg 75%
    16:00 -2°C° 0 mm 3 mps 759 mmHg 77%
    17:00 -2°C° 0 mm 3 mps 759 mmHg 80%
    18:00 -2°C° 0 mm 3 mps 759 mmHg 82%
    19:00 -2°C° 0 mm 3 mps 759 mmHg 82%
    20:00 -2°C° 0 mm 2 mps 759 mmHg 82%
    21:00 -2°C° 0 mm 2 mps 759 mmHg 82%
    22:00 -3°C° 0 mm 2 mps 759 mmHg 82%
    23:00 -3°C° 0 mm 2 mps 759 mmHg 82%

    22 November, Thursday

    Time Temperature Precipitation Wind Pressure Humidity
    00:00 -3°C° 0 mm 2 mps 759 mmHg 82%
    01:00 -3°C° 0 mm 2 mps 759 mmHg 84%
    02:00 -4°C° 0 mm 2 mps 759 mmHg 85%
    03:00 -4°C° 0 mm 2 mps 759 mmHg 87%
    04:00 -5°C° 0 mm 2 mps 758 mmHg 87%
    05:00 -5°C° 0 mm 2 mps 758 mmHg 87%
    06:00 -6°C° 0 mm 3 mps 758 mmHg 87%
    07:00 -6°C° 0 mm 3 mps 757 mmHg 87%
    08:00 -6°C° 0 mm 3 mps 757 mmHg 87%
    09:00 -5°C° 0 mm 4 mps 757 mmHg 87%
    10:00 -5°C° 0 mm 4 mps 756 mmHg 81%
    11:00 -5°C° 0 mm 5 mps 756 mmHg 74%
    12:00 -4°C° 0 mm 5 mps 756 mmHg 68%
    13:00 -4°C° 0 mm 5 mps 756 mmHg 70%
    14:00 -4°C° 0 mm 5 mps 755 mmHg 72%
    15:00 -4°C° 0 mm 5 mps 755 mmHg 73%
    16:00 -4°C° 0 mm 5 mps 755 mmHg 75%
    17:00 -4°C° 0 mm 5 mps 755 mmHg 76%
    18:00 -4°C° 0 mm 5 mps 755 mmHg 77%
    19:00 -4°C° 0 mm 5 mps 755 mmHg 79%
    20:00 -3°C° 0 mm 4 mps 756 mmHg 81%
    21:00 -3°C° 0 mm 4 mps 756 mmHg 83%
    22:00 -3°C° 0 mm 4 mps 756 mmHg 83%
    23:00 -3°C° 0 mm 4 mps 756 mmHg 83%

    23 November, Friday

    Time Temperature Precipitation Wind Pressure Humidity
    00:00 -3°C° 0 mm 4 mps 757 mmHg 84%
    01:00 -3°C° 0 mm 4 mps 757 mmHg 87%
    02:00 -4°C° 0 mm 4 mps 757 mmHg 89%
    03:00 -4°C° 0 mm 4 mps 758 mmHg 92%
    04:00 -4°C° 0 mm 3 mps 758 mmHg 93%
    05:00 -5°C° 0 mm 3 mps 758 mmHg 94%
    06:00 -5°C° 0 mm 3 mps 758 mmHg 95%
    07:00 -5°C° 0 mm 3 mps 759 mmHg 95%
    08:00 -5°C° 0 mm 3 mps 759 mmHg 95%
    09:00 -4°C° 0 mm 2 mps 759 mmHg 96%
    10:00 -4°C° 0 mm 3 mps 760 mmHg 92%
    11:00 -2°C° 0 mm 3 mps 760 mmHg 89%
    12:00 -2°C° 0 mm 3 mps 760 mmHg 86%
    13:00 -2°C° 0 mm 3 mps 760 mmHg 85%
    14:00 -1°C° 0 mm 3 mps 760 mmHg 84%
    15:00 -1°C° 0 mm 3 mps 759 mmHg 83%
    16:00 -1°C° 0 mm 3 mps 759 mmHg 83%
    17:00 -1°C° 0 mm 3 mps 759 mmHg 84%
    18:00 -2°C° 0 mm 3 mps 759 mmHg 84%
    19:00 -3°C° 0 mm 4 mps 758 mmHg 86%
    20:00 -3°C° 0 mm 4 mps 758 mmHg 87%
    21:00 -3°C° 0 mm 4 mps 758 mmHg 89%
    22:00 -3°C° 0 mm 4 mps 757 mmHg 89%
    23:00 -4°C° 0 mm 5 mps 757 mmHg 90%
    Show more